User: anonymous   Login
Location: Unspecified
(0.0000°N, 0.0000°E)
Time: 10:34:36
(UTC+00:00)
Language:

Kosmos-2061 - Orbit

View from above orbital plane
View from above orbital plane
View from above satellite
View from above satellite

Ground track
Ground track

The orbit data is extracted from the following two-line orbital elements,

1 20527U 90023A   18021.29655056  .00000036  00000-0  22295-4 0  9993
2 20527  82.9369 273.9061 0031728 142.4882 356.9467 13.72130861394214
Epoch (UTC): 21 January 2018 07:07:01
Eccentricity: 0.0031728
inclination: 82.9369°
perigee height: 968 km
apogee height: 1015 km
right ascension of ascending node: 273.9061°
argument of perigee: 142.4882°
revolutions per day: 13.72130861
mean anomaly at epoch: 356.9467°
orbit number at epoch: 39421

The dashed part of the orbit path shows where the satellite is in the earth's shadow,  

DLR